Volver al catálogo

THOR DELTA 1 DEB

LostPO
NORAD 33514·DEBRIS·🇺🇸 United States

Lanzado Apr 1, 1971 desde Vandenberg Space Force Base

Loading…

Próximos Pases (próximas 24 horas)

TLE

ObsoletoSource: Space-Track

Época: Sep 24, 2018, 12:41 UTC

1 33514U 71024E   18267.52854242 +.00000857 +00000-0 +31163-2 0  9992
2 33514 088.1878 358.9813 0064682 088.1929 277.8907 12.92038317681223

Sigue THOR DELTA 1 DEB en tiempo real con AllMySat

Download on the App Store